Hourly Data Report for July 05, 2022

TORONTO CITY
ONTARIO
Current Station Operator: ECCC - MSC

43°40'00.000" N
79°24'00.000" W
112.50 m
6158355
71508
XTO

Download Data

Hourly Data (July 2022)
Hourly Data Report for July 5, 2022
TIME
LST
Temp Definition
°C
Dew Point Definition
°C
Rel Hum Definition
%
Precip. Amount Definition
mm

Wind Dir Definition
10's deg

Wind Spd Definition
km/h
Visibility Definition
km
Stn Press Definition
kPa
Hmdx Definition


Wind Chill Definition


Weather Definition


00:00 21.6 14.1 62 0.0       100.33 25   LegendNANA
01:00 21.2 14.4 65 0.0       100.29 25   LegendNANA
02:00 20.9 14.6 67 0.0       100.17 25   LegendNANA
03:00 20.9 15.0 69 0.0       100.09 25   LegendNANA
04:00 20.7 15.7 73 0.0       100.04 25   LegendNANA
05:00 20.6 16.0 75 0.0       99.97 25   LegendNANA
06:00 21.1 16.3 74 0.0       99.94 26   LegendNANA
07:00 20.2 17.7 85 0.2       99.96 26   LegendNANA
08:00 19.9 18.7 93 1.7       99.91     LegendNANA
09:00 20.3 18.6 90 0.4       99.77 27   LegendNANA
10:00 19.4 17.8 90 0.4       99.74     LegendNANA
11:00 18.7 17.7 94 2.5       99.68     LegendNANA
12:00 19.2 18.4 95 0.0       99.59     LegendNANA
13:00 20.0 19.2 95 0.3       99.51 27   LegendNANA
14:00 21.5 19.7 90 0.0       99.47 29   LegendNANA
15:00 23.9 20.7 82 0.0       99.41 32   LegendNANA
16:00 24.7 20.9 79 0.0       99.38 33   LegendNANA
17:00 24.5 20.4 78 0.0       99.36 32   LegendNANA
18:00 26.7 18.5 61 0.0       99.41 33   LegendNANA
19:00 24.5 17.6 66 0.0       99.51 30   LegendNANA
20:00 22.7 16.6 69 0.0       99.57 28   LegendNANA
21:00 21.4 16.3 73 0.0       99.63 26   LegendNANA
22:00 20.2 16.2 78 0.0       99.70 25   LegendNANA
23:00 19.8 16.3 80 0.0       99.76     LegendNANA

Notes on Data Quality.

Legend

  • E = Estimated
  • M = Missing
  • NA = Not Available*
  • [empty] = Indicates an unobserved value
Date modified: